Location: Prairie Dale
(45.6972°N, 104.5033°W)
Time: 00:58:25
(UTC+00:00)

EO-79 - Pass Details

Date: 05 July 2022
Orbit: 588 x 603 km, 98.0° (Epoch: 15 August)

Event Time Altitude Azimuth Distance (km) Brightness Sun altitude
Rises 08:04:15 0° 22° (NNE) 2,860 ? -20.1°
Reaches altitude 10° 08:06:38 10° 33° (NNE) 1,954 ? -20.0°
Maximum altitude 08:10:26 32° 96° (E) 1,055 ? -19.8°
Enters shadow 08:11:57 25° 134° (SE) 1,241 ? -19.7°
